Regional Weather Roundup
Issued by NWS

Home | Current Version | Previous Version | Graphics & Text | Print | Product List | Glossary On
Versions: 1 2 3 4 5 6 7 8 9 10 11 12 13 14 15 16 17 18 19 20 21 22 23 24 25 26 27 28 29 30 31 32 33 34 35 36 37 38 39 40 41 42 43 44 45 46 47 48 49 50
000
ASUS43 KLOT 160400
RWRIL

ILLINOIS REGIONAL WEATHER ROUNDUP
NATIONAL WEATHER SERVICE CHICAGO/ROMEOVILLE IL
1100 PM CDT MON SEP 15 2014

NOTE: "FAIR" INDICATES FEW OR NO CLOUDS BELOW 12,000 FEET WITH NO
SIGNIFICANT WEATHER AND/OR OBSTRUCTIONS TO VISIBILITY.

* THESE STATIONS ARE NOT UNDER NWS QUALITY CONTROL. THEY ALSO MAY NOT
  REPORT WEATHER SUCH AS PRECIPITATION OR FOG.

ILZ001-002-007-009-015-016-024-160500-
NORTHWEST ILLINOIS

CITY           SKY/WX    TMP DP  RH WIND       PRES   REMARKS
MOLINE         CLEAR     47  46  97 CALM      30.21R
STERLING*      CLEAR     46  45  93 N3        30.21R
$$

ILZ003-004-008-010-011-017-018-160500-
NORTH CENTRAL ILLINOIS

CITY           SKY/WX    TMP DP  RH WIND       PRES   REMARKS
ROCKFORD       CLEAR     46  44  93 CALM      30.21R
FREEPORT*      CLEAR     44  42  94 NW3       30.22S
$$

ILZ005-006-012>014-019>023-160500-
NORTHEAST ILLINOIS

CITY           SKY/WX    TMP DP  RH WIND       PRES   REMARKS
CHICAGO-OHARE  PTCLDY    53  48  83 NW7       30.17R
CHICAGO-MIDWAY MOCLDY    56  49  77 NW12      30.17R
AURORA         CLEAR     49  46  90 N6        30.18S
WAUKEGAN       CLEAR     48  46  93 W3        30.17R FOG
DUPAGE AIRPORT CLEAR     51  47  86 N6        30.18R
WHEELING       CLEAR     51  48  89 NW6       30.19R
NORTHERLY ISL    N/A     56  50  80 NW9         N/A
$$

LMZ740>746-160500-
SOUTHERN LAKE MICHIGAN

STATION/POSITION SKY/WX   TEMP    WIND        PRES    VSBY  WAVE
                          AIR SEA DIR/SP/G                  HT/PER
                          (F)     (DEG/KT/KT) (MB)    (MI)  (FT/S)
SOUTHERN BUOY              57 64  340/ 12/ 14 1020.7R         2/ 4
WAUKEGAN HARBOR            52     300/  7/  8   N/A
HARRISON CRIB              55     330/ 18/ 20   N/A
BURNHAM HARBOR             56     310/  7/ 11   N/A
CALUMET HARBOR             57     330/  8/ 15 1019.9
MICHIGAN CITY              59     340/ 19/ 22   N/A
MICHIGAN CITY 6N           60 64  350/ 12/ 16   N/A           4/ 4
ST. JOSEPH                 58 66   80/ 10/ 12   N/A           3/ 5
$$

ILZ025>027-034>036-040-047-049-050-058-095>099-160500-
WEST-CENTRAL ILLINOIS

CITY           SKY/WX    TMP DP  RH WIND       PRES   REMARKS
QUINCY         CLOUDY    56  51  84 N10       30.20R
GALESBURG*     PTCLDY    50  48  92 CALM      30.21R
$$

ILZ028>032-037-038-041>044-048-051>054-059>061-160500-
CENTRAL ILLINOIS

CITY           SKY/WX    TMP DP  RH WIND       PRES   REMARKS
DECATUR        CLOUDY    57  54  89 N12       30.16R
PEORIA         CLOUDY    56  52  86 N6        30.19S
SPRINGFIELD    CLEAR     55  53  93 N10       30.18R
TAYLORVILLE    NOT AVBL
$$

ILZ033-039-045-046-055>057-062-063-160500-
EAST-CENTRAL ILLINOIS

CITY           SKY/WX    TMP DP  RH WIND       PRES   REMARKS
CHAMPAIGN      CLOUDY    57  56  96 N10       30.15R
MATTOON        CLOUDY    58  56  93 N8        30.13S
$$

ILZ079-100>102-160500-
SOUTHWEST ILLINOIS

CITY           SKY/WX    TMP DP  RH WIND       PRES   REMARKS
ALTON          CLOUDY    59  57  92 CALM      30.17R
BELLEVILLE     CLOUDY    62  60  95 W6        30.15R
CAHOKIA*       CLOUDY    63  59  87 N9        30.16R
$$

ILZ064>066-069>071-074>076-080>082-084>086-088>090-092>094-160500-
SOUTH-CENTRAL ILLINOIS

CITY           SKY/WX    TMP DP  RH WIND       PRES   REMARKS
CARBONDALE     CLOUDY    65  61  87 N9        30.12R
MT. VERNON     CLOUDY    63  57  82 N5        30.13R
$$

ILZ067-068-072-073-078-083-087-091-160500-
SOUTHEAST ILLINOIS

CITY           SKY/WX    TMP DP  RH WIND       PRES   REMARKS
LAWRENCEVILLE  CLOUDY    61  60  97 N9        30.11R FOG
HARRISBURG*    CLOUDY    68  67  96 CALM      30.11R
$$

ABBREVIATIONS USED IN REMARKS
   TC - TEMPERATURE IN CELSIUS
  WCI - WIND CHILL INDEX
   HX - HEAT INDEX
  VSB - VISIBILITY
$$



USA.gov is the U.S. government's official web portal to all federal, state and local government web resources and services.